311  
ASUS46 KSEW 190010  
RWRWA  
 
WASHINGTON REGIONAL WEATHER ROUNDUP  
NATIONAL WEATHER SERVICE SEATTLE WA  
500 PM PDT SAT AUG 18 2018  
 
NOTE:"FAIR" INDICATES FEW OR NO CLOUDS BELOW 12,000 FEET WITH NO  
SIGNIFICANT WEATHER AND/OR S TO VISIBILITY
.  
 
WAZ507-509-555>559-190100-  
SEATTLE, TACOMA, EVERETT, AND VICINITY  
 
CITY SKY/WX TMP DP RH WIND PRES REMARKS
 
EVERETT SUNNY 74 51 44 W7 30.15F  
6HR MIN TEMP: 65; 6HR MAX TEMP: 75;  
 
BOEING FIELD SUNNY 78 50 37 NW9 30.12F  
6HR MIN TEMP: 68; 6HR MAX TEMP: 79;  
 
RENTON SUNNY 80 52 37 NW10 30.11F  
6HR MIN TEMP: 68; 6HR MAX TEMP: 80;  
 
SEATAC AIRPORT MOSUNNY 80 50 34 NW10 30.14F  
6HR MIN TEMP: 68; 6HR MAX TEMP: 81;  
 
JBLM-MCCHORD SUNNY 80 58 46 E6 30.13F  
6HR MIN TEMP: 67; 6HR MAX TEMP: 80;  
 
PUYALLUP FAIR 81 52 36 VRB6 30.14F  
BREMERTON SUNNY 79 55 43 NE9 30.13F  
6HR MIN TEMP: 69; 6HR MAX TEMP: 80;  
 
JBLM-FT LEWIS SUNNY 81 57 44 NW8 30.12F  
6HR MIN TEMP: 66; 6HR MAX TEMP: 81;  
 
TACOMA NARROWS SUNNY 75 53 46 VRB5 30.13F  
6HR MIN TEMP: 62; 6HR MAX TEMP: 76;  
 

 
 
WAZ001-503-506-510-514-515-190100-  
NORTH INTERIOR  
 
CITY SKY/WX TMP DP RH WIND PRES REMARKS
 
BELLINGHAM MOSUNNY 73 56 54 W6 30.13F  
6HR MIN TEMP: 64; 6HR MAX TEMP: 73;  
 
FRIDAY HARBOR MOSUNNY 68 54 60 E5 30.15F  
6HR MIN TEMP: 67; 6HR MAX TEMP: 77;  
 
EASTSOUND SUNNY 66 59 77 NW5 30.14S  
PORT ANGELES MOSUNNY 67 52 58 N5 30.16F  
6HR MIN TEMP: 67; 6HR MAX TEMP: 74;  
 
EDIZ HOOK FAIR 55 50 83 NW10G17 30.16S  
6HR MIN TEMP: 55; 6HR MAX TEMP: 68;  
 
PORT TOWNSEND FAIR 75 54 46 W5 30.13F  
NAS WHIDBEY PTSUNNY 64 55 72 W7 30.18F  
6HR MIN TEMP: 61; 6HR MAX TEMP: 70;  
 
ARLINGTON SUNNY 76 54 46 W8 30.13F  
6HR MIN TEMP: 66; 6HR MAX TEMP: 77;  
 
BURLINGTON SUNNY 73 54 49 W7 30.14S  

 
 
WAZ020-022-039-040-504-511-512-190100-  
SOUTHWEST INTERIOR  
 
CITY SKY/WX TMP DP RH WIND PRES REMARKS
 
SHELTON SUNNY 84 54 35 VRB6 30.08F  
6HR MIN TEMP: 68; 6HR MAX TEMP: 85;  
 
OLYMPIA SUNNY 82 51 34 MISG 30.11F  
6HR MIN TEMP: 66; 6HR MAX TEMP: 83;  
 
CHEHALIS FAIR 84 55 37 VRB5G13 30.10F  
KELSO SUNNY 83 59 44 NW13 30.08F  
6HR MIN TEMP: 66; 6HR MAX TEMP: 86;  
 
VANCOUVER SUNNY 86 51 29 VRB6 30.06F  
6HR MIN TEMP: 66; 6HR MAX TEMP: 86;  
 
SCAPPOOSE, OR SUNNY 87 50 27 N10 30.05F  
6HR MIN TEMP: 67; 6HR MAX TEMP: 87;  
 
PORTLAND, OR SUNNY 86 50 28 VRB3 30.06F  
6HR MIN TEMP: 66; 6HR MAX TEMP: 86;  
 

 
 
WAZ021-516-517-190100-  
WASHINGTON COAST  
 
CITY SKY/WX TMP DP RH WIND PRES REMARKS
 
FORKS MOSUNNY 62 54 74 W8 30.17S  
6HR MIN TEMP: 56; 6HR MAX TEMP: 69;  
 
HOQUIAM SUNNY 64 57 78 SW12 30.16F HAZE  
6HR MIN TEMP: 61; 6HR MAX TEMP: 66;  
 
ASTORIA, OR SUNNY 66 58 75 W7 30.15F  
6HR MIN TEMP: 62; 6HR MAX TEMP: 68;  
 

 
 
WAZ019-023-024-040-567>569-190100-  
CASCADE MOUNTAINS AND COLUMBIA GORGE  
 
CITY SKY/WX TMP DP RH WIND PRES REMARKS
 
STAMPEDE PASS NOT AVBL  
TROUTDALE, OR SUNNY 85 52 32 SW8 30.06F  
6HR MIN TEMP: 66; 6HR MAX TEMP: 85;  
 
HOOD RIVER, OR CLEAR 86 50 28 NW5 30.02F  
THE DALLES, OR SUNNY 91 51 25 NW13 29.98F  
6HR MIN TEMP: 76; 6HR MAX TEMP: 93;  
 

 
 
WAZ026-027-041>044-520-521-190100-  
EAST SLOPES  
 
CITY SKY/WX TMP DP RH WIND PRES REMARKS
 
OMAK HAZE 88 43 20 N12 30.07F VSB 3/4  
6HR MIN TEMP: 76; 6HR MAX TEMP: 89;  
 
WENATCHEE CLOUDY 88 37 16 S5 30.05F HAZE  
6HR MIN TEMP: 73; 6HR MAX TEMP: 88;  
 
ELLENSBURG CLOUDY 89 49 25 VRB3 30.08F HAZE  
6HR MIN TEMP: 74; 6HR MAX TEMP: 90;  
 
YAKIMA SUNNY 90 47 22 SE5 30.04F  
6HR MIN TEMP: 78; 6HR MAX TEMP: 91;  
 
SUNNYSIDE ARPT CLEAR 89 54 30 CALM 30.03F  
6HR MIN TEMP: 73; 6HR MAX TEMP: 90;  
 
YAKIMA TC N/A 91 45 20 S8 30.03F  
6HR MIN TEMP: 78; 6HR MAX TEMP: 91;  
 

 
 
WAZ028-034-035-190100-  
COLUMBIA BASIN  
 
CITY SKY/WX TMP DP RH WIND PRES REMARKS
 
EPHRATA PTSUNNY 90 49 24 VRB6 30.05F HAZE  
6HR MIN TEMP: 80; 6HR MAX TEMP: 92;  
 
MOSES LAKE SUNNY 89 47 23 SE5 30.06F HAZE  
6HR MIN TEMP: 76; 6HR MAX TEMP: 89;  
 
PASCO SUNNY 93 50 23 N6 30.02F HX 90  
6HR MIN TEMP: 79; 6HR MAX TEMP: 93;  
 
RICHLAND ARPT CLEAR 92 46 20 NE5 30.02F  
6HR MIN TEMP: 81; 6HR MAX TEMP: 92;  
 
HERMISTON, OR SUNNY 93 42 17 VRB6 30.00F  
6HR MIN TEMP: 77; 6HR MAX TEMP: 93;  
 

 
 
WAZ036>038-190100-  
NORTHEAST WASHINGTON  
 
CITY SKY/WX TMP DP RH WIND PRES REMARKS
 
SPOKANE GEIGER PTSUNNY 81 43 26 W5 30.13F  
6HR MIN TEMP: 73; 6HR MAX TEMP: 83;  
 
SPOKANE FELTS SUNNY 84 44 24 W5 30.11F  
6HR MIN TEMP: 76; 6HR MAX TEMP: 86;  
 
FAIRCHILD AFB PTSUNNY 80 43 26 CALM 30.14F  
6HR MIN TEMP: 73; 6HR MAX TEMP: 81;  
 
COEURDALENE,ID SUNNY 84 45 25 W6 30.13  
6HR MIN TEMP: 75; 6HR MAX TEMP: 85;  
 
DEER PARK SUNNY 82 45 27 CALM 30.13F HAZE  
6HR MIN TEMP: 73; 6HR MAX TEMP: 83;  
 

 
 
WAZ029>033-190100-  
SOUTHEAST WASHINGTON  
 
CITY SKY/WX TMP DP RH WIND PRES REMARKS
 
PULLMAN SUNNY 84 40 21 VRB6 30.15F  
6HR MIN TEMP: 77; 6HR MAX TEMP: 85;  
 
LEWISTON, ID SUNNY 90 41 18 W3 30.06F  
6HR MIN TEMP: 78; 6HR MAX TEMP: 91;  
 
WALLA WALLA SUNNY 93 49 22 NE8 30.04F HX 90  
6HR MIN TEMP: 78; 6HR MAX TEMP: 94;  
 
PENDLETON, OR SUNNY 92 32 12 NW7 30.05F  
6HR MIN TEMP: 79; 6HR MAX TEMP: 93;  
 

 
 
 
CLICK HERE TO GO TO PREVIOUS BULLETINS.

The Nexlab WA Page Main Text Page